Location: Hopville
(44.8032°N, 123.1329°W)
Time: 17:21:52
(UTC+00:00)

FengYun 1-2 T - Pass Details

Date: 24 January 2021
Orbit: 846 x 881 km, 98.7° (Epoch: 01 March)

Event Time Altitude Azimuth Distance (km) Brightness Sun altitude
Rises 15:03:14 0° 12° (NNE) 3,491 7.3 -6.8°
Reaches altitude 10° 15:05:38 10° 12° (NNE) 2,549 6.6 -6.4°
Maximum altitude 15:11:19 81° 287° (WNW) 898 4.3 -5.4°
Drops below altitude 10° 15:16:57 10° 200° (SSW) 2,525 6.7 -4.5°
Sets 15:19:19 0° 200° (SSW) 3,456 7.4 -4.1°
